sat.trackr.live / text

‹ back to catalog

STARLINK-34579

NORAD 64925 · 2025-157X

PAYLOAD ACTIVE UNKNOWN

§ Identity

Operator
Country
US
Launch date
2025-07-26
Launch site
AFETR
Launch vehicle
Mass (kg)
RCS (m²)

Purposes: comms

External: N2YO · Heavens-Above · Gunter

§ Orbital elements

Epoch: 2026-05-24T23:27:43.792416Z

Period
94.11 min
Inclination
53.1611°
Eccentricity
0.0001122
Mean motion
15.30200778 rev/d
Perigee alt
474.4 km
Apogee alt
476.0 km
Semi-major
6,853.3 km
B*
1.0106e-3
RAAN
351.3268°
Arg perigee
93.9996°
Mean anomaly
266.1133°
Rev number
4,780

§ Raw data

STARLINK-345791 64925U 25157X   26144.97759019  .00029692  00000+0  10106-2 0  99972 64925  53.1611 351.3268 0001122  93.9996 266.1133 15.30200778 47808

JSON: /api/v1/satellites/64925 · /tle

For live sub-satellite position, see the globe view (requires WebGL).

§ Visibility from observer

Set your observer location to see the next 7 days of passes ≥ 10°. The values pass through the URL so the page stays shareable.

No JS? Fill the form by hand. The geolocation button needs JavaScript.